ARIANE 40 R/B           
1 22830U 93061H   20195.58515177 -.00000037  00000-0  31821-5 0  9991
2 22830  98.7630 245.0198 0009904 242.5582 117.4594 14.31452343398561
COSMOS 2278             
1 23087U 94023A   20195.63880963 -.00000150  00000-0 -54324-4 0  9998
2 23087  71.0514 172.9236 0010782 294.7669  65.2331 14.13801216352895
SL-16 R/B               
1 23088U 94023B   20195.42230098 -.00000234  00000-0 -96990-4 0  9992
2 23088  71.0015  86.6168 0004540 227.3409 132.7331 14.14691583353982
SL-16 R/B               
1 23343U 94074B   20196.13079455 -.00000021  00000-0  43268-5 0  9993
2 23343  97.9971 248.8932 0008183  69.4759 312.7027 14.76828978382561
SL-16 R/B               
1 23405U 94077B   20195.92057457 -.00000290  00000-0 -12446-3 0  9990
2 23405  70.9834  14.8127 0001418 358.8628   1.2491 14.15219509324108
ERS-2                   
1 23560U 95021A   20195.70423816  .00000392  00000-0  20351-4 0  9990
2 23560  98.5445 352.8007 0004740  86.0130 274.1645 15.23210998346159
ARIANE 40+ R/B          
1 23561U 95021B   20195.84681918 -.00000001  00000-0  14701-4 0  9995
2 23561  98.7220 235.4417 0007198 166.6171   6.8188 14.37975006322365
SL-16 R/B               
1 23705U 95058B   20195.74118558  .00000163  00000-0  10862-3 0  9990
2 23705  71.0195 193.7976 0011671  17.6528 342.4998 14.15138325275993
SL-16 R/B               
1 24298U 96051B   20195.78817851 -.00000014  00000-0  18723-4 0  9999
2 24298  70.8418 215.0130 0017377 304.2893  55.6581 14.12502351230077
ORBVIEW 2 (SEASTAR)     
1 24883U 97037A   20195.78395719  .00000013  00000-0  20893-4 0  9997
2 24883  98.6134 308.9409 0002992  49.4781 310.6663 14.33561455212485
SL-16 R/B               
1 25400U 98043G   20195.26417136 -.00000016  00000-0  11669-4 0  9997
2 25400  98.6077 130.7176 0008781 259.1822 100.8370 14.25457740144690
SL-16 R/B               
1 25407U 98045B   20195.48109153  .00000248  00000-0  15056-3 0  9996
2 25407  71.0100 202.9097 0009846 290.6708  69.3359 14.15803601134762
ISS (ZARYA)             
1 25544U 98067A   20196.31073334 -.00000139  00000-0  55680-5 0  9995
2 25544  51.6449 214.2269 0001427 112.2979 289.4275 15.49514243236222
SL-8 R/B                
1 25723U 99022C   20195.79605669  .00010601  00000-0  73734-4 0  9992
2 25723  48.4093 219.4681 0003837 106.9153 253.2221 15.74910403182132
CZ-4B R/B               
1 25732U 99025C   20195.52775557 -.00000050  00000-0 -22542-5 0  9991
2 25732  98.9425 224.4420 0038124 135.1771 346.6550 14.17678697 95514
OKEAN-O                 
1 25860U 99039A   20195.66684398  .00000006  00000-0  84833-5 0  9995
2 25860  98.2126 215.1210 0001748 105.6425 254.4977 14.76667986129477
SL-16 R/B               
1 25861U 99039B   20195.59924744 -.00000005  00000-0  68221-5 0  9993
2 25861  98.2072 198.2706 0016985  75.2283  38.1026 14.78583102131487
DELTA 2 R/B             
1 25876U 99041E   20195.76777197 -.00000186  00000-0  10578-4 0  9990
2 25876  51.7615 206.4682 0531617  60.8884 304.4194 14.04433270 72327
HELIOS 1B               
1 25977U 99064A   20195.88162163  .00000027  00000-0  10480-4 0  9996
2 25977  98.2843 351.6903 0000302 162.4937 197.6285 14.82484784379030
TERRA                   
1 25994U 99068A   20196.15755686 -.00000045  00000-0  13415-6 0  9992
2 25994  98.2117 270.0705 0001284  89.8754 270.2608 14.57108608 94206
SL-16 R/B               
1 26070U 00006B   20195.73866638  .00000088  00000-0  69317-4 0  9991
2 26070  71.0036 118.0196 0014398  83.1150 277.1611 14.15469009 56356
MTI                     
1 26102U 00014A   20195.66934504  .00002336  00000-0  35144-4 0  9995
2 26102  97.4992  79.1580 0008761 123.7805 236.4306 15.55962994128595
TITAN 4B R/B            
1 26474U 00047B   20195.72849939  .00000041  00000-0  14499-4 0  9998
2 26474  67.9944   3.3661 0055280 173.6408 186.5449 14.95966557 83175
ENVISAT                 
1 27386U 02009A   20195.92626036 -.00000010  00000-0  10176-4 0  9999
2 27386  98.1355 201.5832 0001368  91.9938 285.9832 14.37985874962423
IDEFIX & ARIANE 42P R/B 
1 27422U 02021B   20195.63742417 -.00000015  00000-0  10307-4 0  9995
2 27422  98.3525 155.6237 0012748 148.3202 211.8750 14.29290645948908
AQUA                    
1 27424U 02022A   20195.84781973  .00000038  00000-0  18409-4 0  9996
2 27424  98.2098 136.1007 0000159  31.0928  42.9118 14.57108889967719
CZ-4B R/B               
1 27432U 02024C   20195.75210516 -.00000030  00000-0  80410-5 0  9992
2 27432  99.0875 198.3917 0051489 101.9330  70.5943 14.14094873937367
MIDORI II (ADEOS-II)    
1 27597U 02056A   20195.61222387  .00000016  00000-0  24119-4 0  9999
2 27597  98.5210 142.5430 0000345  48.6108 311.5102 14.27452264915549
H-2A R/B                
1 27601U 02056E   20195.53197757  .00000027  00000-0  24634-4 0  9992
2 27601  98.2242 229.9615 0071750 199.0309 285.7265 14.31958076918423
CZ-4B R/B               
1 28059U 03049C   20195.36073719 -.00000017  00000-0  76239-5 0  9994
2 28059  98.4851 112.1846 0051232  60.0796 300.5473 14.52604106886570
CZ-2C R/B               
1 28222U 04012C   20195.81243997  .00000126  00000-0  11683-4 0  9995
2 28222  97.6786 158.4267 0045729 301.0773  96.8163 15.10416923889978
SL-16 R/B               
1 28353U 04021B   20196.08475153  .00000071  00000-0  62128-4 0  9990
2 28353  71.0004 243.4718 0007288 288.1052  71.9276 14.14237250830917
CZ-4B R/B               
1 28415U 04035C   20195.39979992  .00000500  00000-0  36969-4 0  9998
2 28415  97.6115 236.6909 0050005 263.7916  95.7613 15.06875376867549
CZ-2C R/B               
1 28480U 04046B   20195.53491508 -.00000014  00000-0  94819-5 0  9990
2 28480  98.0765 228.4601 0142670 147.4483 335.4372 14.25725203814138
ARIANE 5 R/B            
1 28499U 04049H   20196.07562446  .00000025  00000-0  10481-4 0  9996
2 28499  98.0567 297.9371 0092042 186.3847 219.6165 14.80034796840072
CZ-2D R/B               
1 28738U 05024B   20195.78579623  .00000176  00000-0  13844-4 0  9991
2 28738  97.3810 217.4856 0013644  92.7280 267.5513 15.12057108825382
SUZAKU (ASTRO-EII)      
1 28773U 05025A   20196.18603552  .00000341  00000-0  12259-4 0  9998
2 28773  31.3807 202.8376 0004448 117.2472 242.8629 15.17595338828001
ALOS (DAICHI)           
1 28931U 06002A   20195.95758507  .00000078  00000-0  23886-4 0  9990
2 28931  97.8456 180.3907 0001971  52.9605 307.1777 14.62722265771573
H-2A R/B                
1 28932U 06002B   20195.75552262  .00000434  00000-0  46168-4 0  9993
2 28932  98.3223 187.2694 0087503 235.0281 298.6789 14.92243443785065
AKARI (ASTRO-F)         
1 28939U 06005A   20195.53439454  .00000956  00000-0  28088-4 0  9996
2 28939  98.2333 172.6405 0091735 232.3766 126.9123 15.34389909784891
RESURS-DK 1             
1 29228U 06021A   20195.77764109  .00000003  00000-0  75277-5 0  9996
2 29228  69.9360 120.9873 0002479  22.7143 337.4127 15.02550580776704
GENESIS 1               
1 29252U 06029A   20195.75943300  .00000231  00000-0  21181-4 0  9998
2 29252  64.5215 215.5418 0006507 174.2127 185.9072 15.18162859772096
CZ-4B R/B               
1 29507U 06046C   20195.56273288 -.00000331  00000-0 -20634-4 0  9995
2 29507  97.7583 217.4082 0048439  78.5861 282.0798 15.00661638749283
CZ-2C R/B               
1 31114U 07010B   20195.81150980  .00000028  00000-0  31681-4 0  9990
2 31114  98.2589  46.9150 0059461 189.2190 170.7901 14.19325133686741
COSMO-SKYMED 1          
1 31598U 07023A   20196.07698290  .00000073  00000-0  15686-4 0  9997
2 31598  97.8868  18.8536 0001411  90.6243 269.5129 14.82154586708773
GENESIS 2               
1 31789U 07028A   20195.46450124 -.00000137  00000-0  38445-5 0  9999
2 31789  64.5033 258.1476 0043092 238.1997 121.4926 15.17292543719114
COSMOS 2428             
1 31792U 07029A   20196.05502707 -.00000332  00000-0 -15428-3 0  9997
2 31792  70.9083 217.1109 0009165  14.4519 345.6862 14.12320063672626
SL-16 R/B               
1 31793U 07029B   20195.45110755 -.00000175  00000-0 -66195-4 0  9992
2 31793  70.9747 191.7491 0002917 269.3702 198.7144 14.14435626673364
KORONAS-FOTON           
1 33504U 09003A   20195.71104776 -.00000035  00000-0 -35450-5 0  9999
2 33504  82.4409 196.6959 0018923 183.3337 176.7772 15.15660698631464
H-2A R/B                
1 38341U 12025E   20195.54163910  .00000141  00000-0  24041-4 0  9996
2 38341  98.5032 352.2505 0056268 147.0963 213.3772 14.84046157441236
